This is the latest recevied weather packets stored in our database for station/object S59MA-6. If no packets are shown the sender has not sent any weather packets the latest 10 day(s).
| Time | Temp. | Humidity | Pressure | Rain* | Wind** | Luminosity | Snow |
|---|---|---|---|---|---|---|---|
| 1777654558 | 17.78° C | 41% | 1012.5 hPa | 253.75 mm | - | - | - |
| 1777653959 | 17.78° C | 40% | 1012.5 hPa | 253.75 mm | - | - | - |
| 1777653659 | 18.33° C | 41% | 1012.5 hPa | 253.75 mm | - | - | - |
| 1777653358 | 18.33° C | 40% | 1012.5 hPa | 8.13 mm | - | - | - |
| 1777653058 | 18.33° C | 40% | 1011.3 hPa | 5.84 mm | - | - | - |
| 1777652460 | 18.33° C | 40% | 1012.5 hPa | 5.84 mm | - | - | - |
| 1777652158 | 18.89° C | 40% | 1012.6 hPa | 89.41 mm | - | - | - |
| 1777651859 | 18.89° C | 40% | 1012.6 hPa | 13.72 mm | - | - | - |
| 1777651558 | 18.89° C | 40% | 1012.7 hPa | 146.05 mm | - | - | - |
| 1777651258 | 18.89° C | 40% | 1012.8 hPa | 107.19 mm | - | - | - |
| 1777650358 | 18.89° C | 40% | 1012.7 hPa | 253.75 mm | - | - | - |
| 1777649758 | 19.44° C | 40% | 1012.1 hPa | 253.75 mm | - | - | - |
| 1777649459 | 19.44° C | 40% | 1011.9 hPa | 253.75 mm | - | - | - |
| 1777649160 | 19.44° C | 40% | 1012.1 hPa | 253.75 mm | - | - | - |
| 1777648858 | 19.44° C | 40% | 1012.1 hPa | 253.75 mm | - | - | - |
| 1777648258 | 19.44° C | 40% | 1012.8 hPa | 233.68 mm | - | - | - |
| 1777647658 | 19.44° C | 41% | 1011.1 hPa | 253.75 mm | - | - | - |
| 1777647359 | 19.44° C | 41% | 1011.4 hPa | 253.75 mm | - | - | - |
| 1777647068 | 19.44° C | 40% | 1011.2 hPa | 253.75 mm | - | - | - |
| 1777646761 | 18.89° C | 40% | 1012.5 hPa | 253.75 mm | - | - | - |
| 1777646463 | 18.89° C | 39% | 1013 hPa | 253.75 mm | - | - | - |
| 1777646161 | 19.44° C | 39% | 1012.7 hPa | 253.75 mm | - | - | - |
| 1777645861 | 19.44° C | 40% | 1012.1 hPa | 253.75 mm | - | - | - |
| 1777645559 | 19.44° C | 42% | 1011.8 hPa | 132.08 mm | - | - | - |
| 1777645260 | 19.44° C | 42% | 1013.1 hPa | 0 mm | - | - | - |
* Rain latest hour (hover to see other rain measurements)
** Current wind speed in m/s (hover to see current wind gust speed)